STARLINK-1209, 45206

Orbit data source: Space-Track

STARLINK-1209, 45206 is a payload satellite owned by SpaceX/Seattle (US) in LEO that was launched on Mon, 17 Feb 2020 UTC via an FALCON 9 launch vehicle from the Air Force Eastern Test Range (AFETR). Payload-class satellites include a variety of spacecraft equipped with specific instruments for various scientific and technological missions. These include communications satellites like Starlink; space stations such as the ISS; scientific satellites like the Hubble; Earth observation satellites from companies like Planet Labs, Umbra, and HawkEye 360; GPS; miniature CubeSats for education and research; and military/defense satellites.

Loading next visibility...
Identifier
45206, 2020-012AE
Orbit
LEO
Country
Flag of USUS
Related business
Manufacturer
SpaceX/Seattle
Mission
Operational Commercial Communications
Bus & Motor
STARLINK, Unknown motor
Mass
260 kg wet, ~248 kg dry
Launch date (UTC)
2020-02-17 (6 years ago)
Launch vehicle
FALCON 9
Launch site
Air Force Eastern Test Range (AFETR)
Object type
Payload
Rocket body
Debris
Shape & HBR
Box + 1 Pan, 10.1 m
Radar Cross Section
13.562 m², Large (>1 m²)

Expand to show TLE details & history
Last TLE update: 11 hours ago

TLE from 11 hours ago
0 STARLINK-1209
1 45206U 20012AE  25288.00002315  .01666692  00000-0  83296-1 0  9993
2 45206  53.0547 300.5506 0001478 113.6516  47.7800 15.13915694  5853
Epoch: 2025-10-15T00:00Z
TLE epoch observation values (Epoch: 2025-10-15T00:00:02.000Z)
Latitude
14.74579°
Longitude
85.40888°
Altitude
523.748 km
Speed
7.604 km/s
True Right ascension
07h 16m 47s
True Declination
14° 39' 31"
Sunlit
Object was in daylight at epoch
Visualization orbit readout
Latitude
Unknown
Longitude
Unknown
Altitude
Unknown
Speed
Unknown
Apparent Right ascension
Unknown
Apparent Declination
Unknown
Sunlit
N/A
Visualization observer readout
Local Sidereal Time
05:51:43
Azimuth
Unknown
Elevation
Unknown
Doppler factor
Unknown
Orbital elements
Apogee altitude
525.564 km
Perigee altitude
523.524 km
Semi-major axis
6,902.681 km
Eccentricity
0.00015
Inclination
53.0547°
RAAN
300.5506°
Arg. of periapsis
113.6516°
True anomaly
47.79254°
Mean anomaly
47.78°
Eccentric anomaly
47.78627°
Mean motion
3.78457 °/min
Orbital period
95.12 mins
BSTAR
0.083296
Loading maneuver chart data...
Computing Atmospheric mass density...

Documentation

Showing up to 5 results
|